Regional Weather Roundup
Issued by NWS

Home | Current Version | Previous Version | Graphics & Text | Print | Product List | Glossary On
Versions: 1 2 3 4 5 6 7 8 9 10 11 12 13 14 15 16 17 18 19 20 21 22 23 24 25 26 27
000
ASUS45 KTFX 230110
RWRMT
MONTANA REGIONAL WEATHER ROUNDUP
NATIONAL WEATHER SERVICE GREAT FALLS MT
600 PM MST MON JAN 22 2018

NOTE: "FAIR" INDICATES FEW OR NO CLOUDS BELOW 12000 FEET WITH NO
SIGNIFICANT WEATHER AND/OR OBSTRUCTIONS TO VISIBILITY.

MTZ001>007-043-230200-
WEST OF THE DIVIDE

CITY           SKY/WX    TMP DP  RH WIND       PRES   REMARKS
KALISPELL      CLOUDY    35  27  72 SW5       30.12R
MISSOULA       MOCLDY    34  26  72 E6        30.17R WCI  29
BUTTE          FAIR      25  20  81 CALM      30.12R
MULLAN PASS    LGT SNOW  23  22  96 VRB6      30.06S VSB 3/4 WCI  16
ANACONDA         N/A     27  21  80 CALM      30.13R
DEER LODGE       N/A     27  25  93 CALM      30.16R
EUREKA           N/A     37  27  65 MISG      30.11R
HAMILTON         N/A     34  25  69 CALM        N/A
PLAINS           N/A     34  29  82 CALM      30.18R
RONAN            N/A     36  25  64 SW14      30.16R WCI  27
$$

MTZ008-052>055-230200-
SOUTHWEST MONTANA

CITY           SKY/WX    TMP DP  RH WIND       PRES   REMARKS
BOZEMAN        MOCLDY    22  17  81 N3        30.14R
DILLON         CLOUDY    22  19  89 SW15      30.13R WCI   9
ENNIS          LGT SNOW  25  21  86 S9        30.18S WCI  15
W YELLOWSTONE  CLOUDY    19  16  86 SW5       30.14R
THREE FORKS      N/A     29  22  75 CALM      30.11R
TWIN BRIDGES     N/A     26  16  66 CALM      30.12R
$$

MTZ009-010-012-014-046-048-049-054-230200-
EAST SLOPES AND CENTRAL MONTANA

CITY           SKY/WX    TMP DP  RH WIND       PRES   REMARKS
CUT BANK       FAIR      31  19  61 W25G35    29.96R WCI  17
GREAT FALLS    FAIR      32  18  56 SW20      30.03R WCI  20
MALMSTROM AFB  MOCLDY    35  19  51 W15       30.05R WCI  26
HELENA         FAIR      30  21  69 SW8       30.10S WCI  22
BOWMANS CRNR   FAIR      28  16  59 S10       30.02R WCI  19
CHOTEAU          N/A     34  12  40 S15G21    30.01F WCI  24
FAIRFIELD      FAIR      33  13  42 SW16      30.01F WCI  23
POWER          MOCLDY    28  19  69 SW13      30.01S WCI  18
RAYNESFORD     MOCLDY    35  16  47 SW12      30.06R WCI  26
ULM            FAIR      32  19  58 W9        30.06R WCI  24
WHITE SULPHUR    N/A     27  16  63 S7G20     30.05R WCI  19
$$

MTZ011-013-016-021-045-047-050-051-230200-
NORTH CENTRAL MONTANA

CITY           SKY/WX    TMP DP  RH WIND       PRES   REMARKS
HAVRE          FAIR      31  25  78 SW17      30.01R WCI  19
LEWISTOWN      FAIR      26  19  74 SW13      30.03S WCI  15
N BAR RANCH    FAIR      30  18  59 W8        30.04R WCI  23
CHINOOK          N/A     34  23  64 W6        30.01R WCI  29
DENTON         FAIR      33  19  57 MISG      30.00R
GEYSER         MOCLDY    30  18  60 W22       30.01R WCI  17
GRASS RANGE    MOCLDY    33  21  61 SW13      29.99R WCI  24
STANFORD       FAIR      31  16  54 W13       30.01R WCI  21
WINIFRED       FAIR      31  21  65 SW9       30.02S WCI  23
$$

MTZ017>020-022>027-061-062-230200-
NORTHEAST MONTANA

CITY           SKY/WX    TMP DP  RH WIND       PRES   REMARKS
GLASGOW        FAIR      21  16  81 NW5       29.99S
GLENDIVE       FAIR      16  12  84 CALM      30.02S
JORDAN           N/A     26  20  77 W9        30.02R WCI  17
MALTA          CLEAR     19  16  86 W7        30.00S WCI  10
SIDNEY         FAIR      20  16  84 S6        30.00S WCI  12
WOLF POINT     FAIR      14  10  84 W6        30.01S WCI   5
PLENTYWOOD       N/A     23  18  80 CALM      29.94R
POPLAR           N/A     18  12  79 W5        30.01S
SCOBEY           N/A     25  14  62 CALM      29.93
$$

MTZ028>42-056>058-230200-
SOUTHCENTRAL AND SOUTHEAST MONTANA

CITY           SKY/WX    TMP DP  RH WIND       PRES   REMARKS
BAKER          FAIR      22  17  81 W8        30.01S WCI  12
BILLINGS       MOCLDY    32  19  58 SW15      30.07R WCI  22
LIVINGSTON     MOCLDY    31  22  69 W18       30.09R WCI  19
MILES CITY     FAIR      28  22  78 W5        30.04R
BIG TIMBER     PTCLDY    32  23  69 W26       30.08S WCI  18
EKALAKA          N/A     25  14  62 CALM      29.99
FORSYTH          N/A     34  23  64 SW6       30.06R WCI  29
HARLOWTON      MOCLDY    30  22  71 W28       30.02S WCI  15
LAUREL           N/A     30  19  64 CALM      30.09R
$$

REGIONAL REPORTS...DAKOTAS

CITY           SKY/WX    TMP DP  RH WIND       PRES   REMARKS
WILLISTON      FAIR      25  18  74 SW6       29.98S WCI  18
MINOT          CLOUDY    20  17  88 S13       30.01F FOG     WCI   7
DICKINSON      FAIR      19  16  88 SW6       29.96F WCI  11
BEACH          FAIR      23  18  80 S5        30.02F
CROSBY         FAIR      19  18  93 S15       29.93F WCI   5
TIOGA          FAIR      18  18 100 S12       29.96F WCI   5
WATFORD CITY   FAIR      21  18  86 SW7       29.98S WCI  13
BISMARCK       CLOUDY    23  21  92 W5        30.05S FOG
GRAND FORKS    CLOUDY    25  20  81 NE10      30.08S WCI  15
FARGO          CLOUDY    25  21  85 N17G24    30.03S WCI  12
BUFFALO SD       N/A     27  17  66 W13       29.94S WCI  16
RAPID CITY     FAIR      30  18  60 N13       30.00S WCI  20
$$

REGIONAL REPORTS...WYOMING/IDAHO/WASHINGTON

CITY           SKY/WX    TMP DP  RH WIND       PRES   REMARKS
GILLETTE         N/A     27  19  72 W13       30.05R WCI  16
SHERIDAN       MOCLDY    29  22  75 CALM      30.05S
BUFFALO WY     FAIR      28  16  60 SW6       30.05S WCI  22
CODY           FAIR      21  16  81 CALM      30.07R
YELLOWSTONE LA   N/A     15  12  88 CALM      30.12R
IDAHO FALLS    CLOUDY    29  28  96 S6        30.21S FOG     WCI  23
SALMON         FAIR      22  19  89 SE3       30.24R
BOISE          FAIR      39  31  72 NW5       30.29R
SPOKANE        FAIR      35  32  88 SW8       30.20R WCI  29
$$

REGIONAL REPORTS...ALBERTA

CITY           SKY/WX    TMP DP  RH WIND       PRES   REMARKS
CALGARY        PTCLDY    34  10  37 W12G17    29.90R WCI  25
CARDSTON         N/A     32  18  55 SW8         N/A  WCI  25
EDMONTON       CLEAR     23  19  86 W2        29.89R
FORT MCMURRAY  CLOUDY    10   7  85 E5        29.93S
HIGH LEVEL     FLURRIES   7   1  78 NW3       29.97R
LETHBRIDGE     MOCLDY    36  21  55 W17       29.98R WCI  25
LLOYDMINSTER   CLOUDY    19  19 100 W12       29.87R FOG     WCI   7
MEDICINE HAT   MOCLDY    32  25  74 S12       29.94R WCI  23
PEACE RIVER    FOG       21  19  93 SE5       29.89  VSB 1/2
PINCHER CREEK  CLEAR     30  21  69 W22G30    29.96S WCI  17
WATERTON GATE    N/A     34  16  47 SW29G44     N/A  WCI  20
$$

REGIONAL REPORTS...SASKATCHEWAN

CITY           SKY/WX    TMP DP  RH WIND       PRES   REMARKS
CORONACH         N/A     27  19  74 W17         N/A  WCI  14
CYPRESS HILLS    N/A     30  14  51 W9G17       N/A  WCI  22
ESTEVAN        CLOUDY    14  12  92 E5        29.94S
MOOSE JAW        N/A     28  19  69 NW8         N/A  WCI  20
PRINCE ALBERT  FLURRIES  12   7  79 N7        29.92R WCI   2
REGINA         PTCLDY    25  18  74 S9        29.86S WCI  15
ROCKGLEN         N/A     25  18  74 W16         N/A  WCI  12
SASKATOON      MOCLDY    16  12  86 N10       29.89R WCI   3
SWIFT CURRENT  CLEAR     30  21  69 SW14      29.87R WCI  20
VAL MARIE        N/A     30  21  69 W22G28      N/A  WCI  17
$$




USA.gov is the U.S. government's official web portal to all federal, state and local government web resources and services.